This demonstration page uses our WeatherBlox Daily Observations layout. Learn more.

Left ArrowRight Arrow

Hourly Observations for July 31, 2016

Temp ( °F °C ) Dew Point ( °F °C ) Humidity (%) Winds ( mph kmh ) Pressure ( in mb ) Visibility ( mi km ) Precip ( " mm )
12:58 am 00:58 Partly Cloudy 70 21 66 19.1 89 89 E 6 9 29.95 1014 10 16 0.00 0.00
1:58 am 01:58 Mostly Cloudy 69 20.6 66 18.7 89 89 ESE 6 9 29.94 1014 10 16 0.00 0.00
2:58 am 02:58 Cloudy 70 21.2 65 18.5 85 85 E 6 9 29.93 1014 10 16 0.00 0.00
3:58 am 03:58 Clear 67 19.7 65 18.2 91 91 E 7 11 29.92 1013 10 16 0.00 0.00
4:58 am 04:58 Clear 67 19.7 65 18.4 92 92 E 7 11 29.91 1013 10 16 0.00 0.00
5:58 am 05:58 Partly Cloudy 69 20.6 66 18.9 90 90 E 8 13 29.91 1013 10 16 0.00 0.00
6:58 am 06:58 Sunny 69 20.8 67 19.2 91 91 ESE 8 13 29.91 1013 10 16 0.00 0.00
7:58 am 07:58 Sunny 71 21.7 67 19.5 87 87 ESE 8 13 29.93 1014 10 16 0.00 0.00
8:58 am 08:58 Sunny 73 23 68 19.9 83 83 E 12 19 29.92 1013 10 16 0.00 0.00
9:58 am 09:58 Cloudy 76 24.6 70 20.9 80 80 SE 9 15 29.91 1013 10 16 0.00 0.00
10:40 am 10:40 Cloudy with Nearby Thunderstorms 77 25 70 21 79 79 SW 10 17 29.88 1012 10 16 0.00 0.00
10:52 am 10:52 Cloudy with Light Rain and Nearby Thunderstorms 75 24 70 21 83 83 WSW 15 24 29.91 1013 10 16 0.00 0.00
10:58 am 10:58 Cloudy with Light Rain and Nearby Thunderstorms 75 24.1 69 20.7 81 81 SSW 14 22 29.96 1015 9 14 0.00 0.03
11:35 am 11:35 Cloudy with Light Rain 70 21 68 20 94 94 E 9 15 29.88 1012 10 16 0.00 0.00
11:52 am 11:52 Cloudy 70 21 68 20 94 94 ESE 10 17 29.88 1012 10 16 0.00 0.00
11:58 am 11:58 Cloudy with Light Rain 69 20.6 68 20.2 98 98 E 5 7 29.88 1012 10 16 0.03 0.76
12:31 pm 12:31 Mostly Cloudy 72 22 70 21 94 94 E 7 11 29.85 1011 10 16 0.00 0.00
12:52 pm 12:52 Mostly Cloudy 72 22 70 21 94 94 W 12 19 29.85 1011 10 16 0.00 0.00
12:55 pm 12:55 Mostly Cloudy with Light Rain 72 22 68 20 88 88 W 7 11 29.85 1011 10 16 0.00 0.00
12:58 pm 12:58 Mostly Cloudy with Light Rain 72 22.1 68 20.1 88 88 WNW 8 13 29.88 1012 10 16 0.01 0.25
1:04 pm 13:04 Mostly Cloudy 72 22 68 20 88 88 ENE 7 11 29.88 1012 10 16 0.00 0.00
1:58 pm 13:58 Mostly Cloudy 77 24.9 67 19.7 73 73 ENE 5 7 29.90 1013 10 16 0.00 0.03
2:58 pm 14:58 Mostly Cloudy 82 27.6 71 21.9 71 71 ESE 12 19 29.90 1012 10 16 0.00 0.00
3:58 pm 15:58 Mostly Sunny 84 28.8 71 21.5 65 65 SE 14 22 29.89 1012 10 16 0.00 0.00
4:58 pm 16:58 Sunny 85 29.3 68 20.2 58 58 SE 9 15 29.89 1012 10 16 0.00 0.00
5:58 pm 17:58 Sunny 83 28.1 69 20.4 63 63 SE 13 20 29.88 1012 10 16 0.00 0.00
6:58 pm 18:58 Sunny 82 27.8 70 21 67 67 SE 12 19 29.88 1012 10 16 0.00 0.00
7:58 pm 19:58 Sunny 80 26.5 72 22 76 76 ESE 12 19 29.88 1012 10 16 0.00 0.00
8:58 pm 20:58 Clear 76 24.2 72 22.3 89 89 E 7 11 29.89 1012 10 16 0.00 0.00
9:58 pm 21:58 Clear 75 23.7 71 21.9 90 90 ESE 8 13 29.90 1012 10 16 0.00 0.00
10:58 pm 22:58 Mostly Clear 74 23.6 71 21.6 89 89 ESE 8 13 29.91 1013 10 16 0.00 0.00
11:58 pm 23:58 Partly Cloudy 75 24 71 21.6 87 87 ESE 12 19 29.91 1013 10 16 0.00 0.00

Powered by AerisWeather